Regional Weather Roundup
Issued by NWS

Home | Current Version | Previous Version | Graphics & Text | Print | Product List | Glossary On
Versions: 1 2 3 4 5 6 7 8 9 10 11 12 13 14 15 16 17 18 19 20 21 22 23 24 25 26 27 28 29 30 31 32 33 34 35 36 37 38 39 40 41 42 43 44 45 46 47 48 49 50
000
ASUS45 KSLC 251410
RWRUT

UTAH REGIONAL WEATHER ROUNDUP
NATIONAL WEATHER SERVICE SALT LAKE CITY UT
800 AM MDT THU MAY 25 2017

UTZ001>011-023>025-251500-

NORTHERN UTAH

CITY           SKY/WX    TMP DP  RH WIND       PRES   REMARKS
BRIGHAM CITY   MOSUNNY   54  44  69 NW7       29.72S
DUGWAY         PTSUNNY   56  28  33 N9G16     29.70R
HILL AFB       PTSUNNY   54  39  56 S8        29.72S
LOGAN          SUNNY     53  45  74 N9        29.73R
OGDEN          MOSUNNY   55  40  56 S5        29.71R
SALT LAKE CITY PTSUNNY   58  40  51 CALM      29.71S
TOOELE VALLEY  PTSUNNY   54  37  54 W3        29.73R
WENDOVER       PTSUNNY   57  29  34 SE3       29.73R
HEBER CITY     PTSUNNY   52  36  54 N10       29.73R
WEST JORDAN    CLOUDY    53  48  83 N5        29.73S

$$

UTZ011>015-024>027-251500-

CENTRAL/NORTHEAST UTAH

CITY           SKY/WX    TMP DP  RH WIND       PRES   REMARKS
PROVO AIRPORT  CLOUDY    57  41  55 NW21      29.72R
MOAB/CANYONLAN PTSUNNY   73  30  20 W10       29.58R
DELTA          CLOUDY    57  32  38 CALM      29.72S
PRICE          PTSUNNY   60  33  36 NW12G18   29.68R
ROOSEVELT      CLOUDY    59  37  44 W16       29.66R
VERNAL         CLOUDY    56  38  50 NE12      29.64R

$$

UTZ013>016-019>022-027-251500-

SOUTHERN UTAH

CITY           SKY/WX    TMP DP  RH WIND       PRES   REMARKS
BRYCE CANYON   MOSUNNY   55  28  35 SW16      29.82F
CEDAR CITY     PTSUNNY   63  31  30 SW12      29.71R
MILFORD        MOSUNNY   61  29  29 N17       29.71R
ST GEORGE      PTSUNNY   74  34  23 E5        29.61R
HANKSVILLE       N/A    N/A N/A N/A MISG        N/A
BLANDING       PTSUNNY   59  29  32 NE8       29.82R

$$

REGIONAL REPORTS     COLORADO/ARIZONA

CITY           SKY/WX    TMP DP  RH WIND       PRES   REMARKS
CRAIG, CO      CLOUDY    50  38  63 VRB6      29.75R
GRAND JUNCTION MOSUNNY   66  39  37 CALM      29.60S
RIFLE, CO      PTSUNNY   59  39  47 SE7       29.66S
MONTROSE, CO   SUNNY     57  34  41 SE9       29.70F
CORTEZ, CO     SUNNY     66  23  19 CALM      29.78S
COLORADO CITY    N/A     66  32  28 SE3       29.75S
PAGE, AZ       SUNNY     76  19  11 SW13G23   29.65R
GRAND CANYON   SUNNY     59  17  19 S5        29.87R
KINGMAN, AZ    SUNNY     76  31  19 SW24G30   29.68R
FLAGSTAFF, AZ  SUNNY     56  24  29 SW14      29.92F

$$

REGIONAL REPORTS    NEVADA/IDAHO/WYOMING

CITY           SKY/WX    TMP DP  RH WIND       PRES   REMARKS
LAS VEGAS, NV  MOSUNNY   78  24  13 S12G22    29.55R
ELY, NY        MOSUNNY   48  35  60 NW3       29.81R
ELKO, NV       PTSUNNY   50  36  58 SW9       29.77R
POCATELLO, ID  SUNNY     45  30  55 SW12      29.77R
BURLEY, ID     MOSUNNY   47  28  47 W18G25    29.76R
FORT BRIDGER,  CLOUDY    43  42  98 S9        29.79F
EVANSTON, WY   LGT RAIN  42  40  92 SW10      29.77F
ROCK SPRINGS,  CLOUDY    42  37  82 SW15      29.74F
KEMMERER, WY     N/A     41  36  81 W12       29.76F

$$



USA.gov is the U.S. government's official web portal to all federal, state and local government web resources and services.